Latest Weather Observations for Holsworthy

IDN60801

Issued at 5:32 pm EDT Saturday 25 February 2017 (issued every 30 minutes, with the page automatically refreshed every 10 minutes)

About weather observations | Map of weather stations | Latest weather observations for NSW | Other Formats
Station Details ID: 066161 Name: HOLSWORTHY AERODROME AWS Lat: -33.99 Lon: 150.95 Height: 68.16 m
Data from the previous 72 hours. | See also: Recent months at Holsworthy
Date/Time
EDT
Temp
°C
App
Temp
°C
Dew
Point
°C
Rel
Hum
%
Delta-T
°C
Wind Press
QNH
hPa
Press
MSL
hPa
Rain since
9am
mm
Dir  Spd
km/h
Gust
km/h
Spd
kts
Gust
kts
25/05:30pm 20.6 18.7 15.2 71 3.2 S 19 24 10 13 1020.2 1019.9 0.0
25/05:00pm 20.5 18.9 15.1 71 3.2 S 17 24 9 13 1020.2 1019.9 0.0
25/04:30pm 20.7 18.6 14.8 69 3.5 S 19 30 10 16 1020.2 1019.9 0.0
25/04:00pm 21.7 19.8 15.1 66 3.9 S 19 28 10 15 1020.2 1019.9 0.0
25/03:30pm 21.1 19.5 15.0 68 3.6 S 17 28 9 15 1020.4 1020.1 0.0
25/03:00pm 21.0 18.8 14.9 68 3.6 S 20 30 11 16 1020.6 1020.3 0.0
25/02:30pm 21.1 19.5 15.0 68 3.6 S 17 22 9 12 1020.8 1020.5 0.0
25/02:00pm 21.2 20.7 14.8 67 3.8 SSW 11 20 6 11 1020.8 1020.5 0.0
25/01:30pm 20.6 18.9 14.7 69 3.5 S 17 28 9 15 1021.2 1020.9 0.0
25/01:00pm 20.3 17.6 14.7 70 3.3 S 22 35 12 19 1021.2 1020.9 0.0
25/12:30pm 20.8 18.9 15.1 70 3.4 S 19 26 10 14 1021.3 1021.0 0.0
25/12:00pm 20.7 18.3 15.3 71 3.2 SSE 22 33 12 18 1021.4 1021.1 0.0
25/11:30am 20.6 19.1 15.2 71 3.2 S 17 26 9 14 1021.7 1021.4 0.0
25/11:00am 19.8 17.6 14.8 73 2.9 S 20 30 11 16 1021.8 1021.5 0.0
25/10:30am 19.8 16.4 14.8 73 2.9 S 26 41 14 22 1021.5 1021.2 0.0
25/10:00am 20.1 18.0 15.1 73 2.9 S 20 30 11 16 1021.3 1021.0 0.0
25/09:30am 20.0 18.0 15.4 75 2.7 S 20 35 11 19 1021.1 1020.8 0.0
25/09:00am 19.7 18.7 15.6 77 2.4 S 15 28 8 15 1021.1 1020.8 0.0
25/08:30am 19.5 17.5 15.6 78 2.3 S 20 32 11 17 1020.9 1020.6 0.0
25/08:00am 19.0 16.6 15.5 80 2.1 S 22 33 12 18 1020.8 1020.5 0.0
25/07:53am 19.0 17.0 15.5 80 2.1 S 20 30 11 16 1020.8 1020.5 0.0
25/07:30am 19.0 17.1 15.7 81 2.0 S 20 35 11 19 1020.6 1020.3 0.0
25/07:00am 19.0 16.8 16.0 83 1.8 S 22 33 12 18 1020.1 1019.8 0.0
25/06:30am 19.0 17.3 16.2 84 1.7 S 20 32 11 17 1019.9 1019.6 0.0
25/06:00am 19.1 17.3 16.1 83 1.8 S 20 30 11 16 1019.5 1019.2 0.0
25/05:30am 19.2 18.0 16.2 83 1.8 SSW 17 24 9 13 1019.4 1019.1 0.0
25/05:00am 19.2 18.1 16.4 84 1.7 SSW 17 28 9 15 1019.3 1019.0 0.0
25/04:30am 19.1 17.5 16.5 85 1.6 SSW 20 33 11 18 1019.2 1018.9 0.0
25/04:27am 19.1 17.5 16.5 85 1.6 SSW 20 33 11 18 1019.2 1018.9 0.0
25/04:00am 19.5 18.5 16.7 84 1.7 S 17 32 9 17 1019.1 1018.8 0.0
25/03:47am 19.5 18.2 16.9 85 1.6 S 19 30 10 16 1019.1 1018.8 0.0
25/03:30am 19.6 18.8 17.0 85 1.6 S 17 28 9 15 1019.3 1019.0 0.0
25/03:00am 20.3 19.9 17.1 82 2.0 S 15 32 8 17 1019.3 1019.0 0.0
25/02:50am 20.3 20.0 17.3 83 1.8 S 15 24 8 13 1019.3 1019.0 0.0
25/02:30am 20.4 19.3 17.2 82 2.0 S 19 28 10 15 1019.3 1019.0 0.0
25/02:00am 20.5 20.3 17.5 83 1.8 S 15 26 8 14 1019.5 1019.2 0.0
25/01:30am 20.8 20.1 17.4 81 2.1 SSW 17 26 9 14 1019.6 1019.3 0.0
25/01:00am 21.6 21.9 17.8 79 2.4 SSW 13 19 7 10 1020.2 1019.9 0.0
25/12:30am 21.6 23.6 18.8 84 1.8 WSW 6 9 3 5 1020.3 1020.0 0.0
25/12:00am 21.6 23.0 18.6 83 1.9 WSW 9 11 5 6 1020.2 1019.9 0.0
 
Date/Time
EDT
Temp
°C
App
Temp
°C
Dew
Point
°C
Rel
Hum
%
Delta-T
°C
Wind Press
QNH
hPa
Press
MSL
hPa
Rain since
9am
mm
Dir  Spd
km/h
Gust
km/h
Spd
kts
Gust
kts
24/11:30pm 22.1 22.4 18.7 81 2.1 S 15 22 8 12 1019.5 1019.2 0.0
24/11:00pm 22.9 23.5 18.7 77 2.7 SSE 13 26 7 14 1019.7 1019.4 0.0
24/10:30pm 22.8 24.2 18.6 77 2.7 SW 9 13 5 7 1020.8 1020.5 0.0
24/10:00pm 22.8 24.7 18.6 77 2.6 S 6 9 3 5 1020.6 1020.3 0.0
24/09:30pm 22.7 24.6 18.5 77 2.6 SSE 6 13 3 7 1020.3 1020.0 0.0
24/09:00pm 22.7 24.1 18.7 78 2.5 SSE 9 13 5 7 1019.8 1019.5 0.0
24/08:30pm 22.5 22.4 18.7 79 2.4 SSE 17 24 9 13 1019.2 1018.9 0.0
24/08:00pm 22.4 22.6 18.6 79 2.4 SSE 15 22 8 12 1019.0 1018.7 0.0
24/07:30pm 22.6 23.3 18.8 79 2.4 SSE 13 19 7 10 1018.8 1018.5 0.0
24/07:00pm 23.0 23.3 18.7 77 2.7 SE 15 20 8 11 1018.9 1018.6 0.0
24/06:30pm 23.6 23.2 18.9 75 3.0 SE 19 24 10 13 1018.6 1018.3 0.0
24/06:00pm 24.6 24.2 18.8 70 3.7 SE 19 28 10 15 1018.2 1017.9 0.0
24/05:30pm 25.2 24.2 18.9 68 4.0 SE 22 28 12 15 1017.9 1017.6 0.0
24/05:00pm 26.7 26.0 18.6 61 5.2 E 20 30 11 16 1017.6 1017.3 0.0
24/04:30pm 27.0 26.7 18.3 59 5.5 E 17 26 9 14 1017.8 1017.5 0.0
24/04:00pm 27.0 27.3 18.8 60 5.3 E 15 22 8 12 1018.1 1017.8 0.0
24/03:30pm 26.7 26.5 18.6 61 5.2 E 17 28 9 15 1018.3 1018.0 0.0
24/03:00pm 26.9 26.4 18.7 60 5.2 ESE 19 24 10 13 1018.7 1018.4 0.0
24/02:30pm 26.5 26.0 18.6 62 5.1 ESE 19 28 10 15 1018.6 1018.3 0.0
24/02:00pm 26.2 26.0 18.6 63 4.8 ESE 17 22 9 12 1019.2 1018.9 0.0
24/01:30pm 26.4 26.3 18.8 63 4.9 ESE 17 24 9 13 1019.6 1019.3 0.0
24/01:00pm 26.1 25.9 18.5 63 4.8 ESE 17 20 9 11 1019.9 1019.6 0.0
24/12:30pm 25.9 26.2 18.8 65 4.5 E 15 22 8 12 1020.3 1020.0 0.0
24/12:00pm 25.8 26.4 18.5 64 4.6 ENE 13 19 7 10 1020.7 1020.4 0.0
24/11:30am 25.9 26.1 18.6 64 4.7 ENE 15 22 8 12 1020.9 1020.6 0.0
24/11:00am 24.8 26.2 18.7 69 3.9 NE 9 15 5 8 1021.1 1020.8 0.0
24/10:30am 24.4 26.2 18.8 71 3.6 E 7 13 4 7 1021.4 1021.1 0.0
24/10:00am 23.9 25.4 18.8 73 3.2 SE 9 15 5 8 1021.4 1021.1 0.0
24/09:30am 23.8 25.3 18.9 74 3.1 SE 9 13 5 7 1021.2 1020.9 0.0
24/09:00am 23.1 24.7 19.1 78 2.5 SE 9 13 5 7 1021.1 1020.8 0.0
24/08:30am 22.6 23.9 19.2 81 2.2 SSE 11 15 6 8 1020.9 1020.6 0.0
24/08:00am 21.7 23.3 19.1 85 1.6 S 9 13 5 7 1020.6 1020.3 0.0
24/07:30am 20.7 22.0 18.5 87 1.4 SSE 9 11 5 6 1020.1 1019.8 0.0
24/07:00am 20.2 21.0 18.1 88 1.3 SSE 11 17 6 9 1019.8 1019.5 0.0
24/06:30am 20.1 21.2 17.9 87 1.4 SSE 9 13 5 7 1019.3 1019.0 0.0
24/06:00am 20.0 20.9 17.6 86 1.5 S 9 13 5 7 1019.0 1018.7 0.0
24/05:30am 20.2 20.3 17.4 84 1.7 SE 13 17 7 9 1018.5 1018.2 0.0
24/05:00am 20.1 19.4 17.3 84 1.7 SE 17 20 9 11 1018.2 1017.9 0.0
24/04:30am 19.9 19.7 17.5 86 1.5 SE 15 19 8 10 1017.9 1017.6 0.0
24/04:00am 19.7 19.8 17.5 87 1.3 SE 13 15 7 8 1018.0 1017.7 0.0
24/03:30am 19.8 20.2 17.2 85 1.6 SSE 11 15 6 8 1017.9 1017.6 0.0
24/03:00am 19.8 20.1 17.0 84 1.7 SSE 11 15 6 8 1017.8 1017.5 0.0
24/02:30am 19.2 20.1 16.2 83 1.8 SE 6 7 3 4 1017.5 1017.2 0.0
24/02:00am 20.2 20.8 16.8 81 2.1 SE 9 11 5 6 1017.6 1017.3 0.0
24/01:30am 20.6 21.8 16.8 79 2.3 SE 6 7 3 4 1017.7 1017.4 0.0
24/01:00am 20.8 21.8 16.8 78 2.4 SE 7 9 4 5 1018.0 1017.7 0.0
24/12:30am 21.6 22.9 17.0 75 2.8 ESE 6 9 3 5 1018.2 1017.9 0.0
24/12:00am 22.0 22.9 16.7 72 3.2 ESE 7 9 4 5 1018.2 1017.9 0.0
 
Date/Time
EDT
Temp
°C
App
Temp
°C
Dew
Point
°C
Rel
Hum
%
Delta-T
°C
Wind Press
QNH
hPa
Press
MSL
hPa
Rain since
9am
mm
Dir  Spd
km/h
Gust
km/h
Spd
kts
Gust
kts
23/11:30pm 22.3 22.9 16.8 71 3.4 E 9 13 5 7 1018.3 1018.0 0.0
23/11:00pm 22.5 22.5 16.3 68 3.8 E 11 15 6 8 1018.5 1018.2 0.0
23/10:30pm 22.9 22.5 16.2 66 4.1 E 13 15 7 8 1018.7 1018.4 0.0
23/10:00pm 23.1 23.0 15.9 64 4.4 E 11 15 6 8 1018.8 1018.5 0.0
23/09:30pm 23.2 22.9 15.5 62 4.6 E 11 15 6 8 1018.6 1018.3 0.0
23/09:00pm 23.9 23.6 15.4 59 5.1 E 11 19 6 10 1018.4 1018.1 0.0
23/08:30pm 24.3 23.6 15.5 58 5.3 E 13 20 7 11 1017.8 1017.5 0.0
23/08:00pm 24.6 24.3 15.5 57 5.5 E 11 15 6 8 1017.5 1017.2 0.0
23/07:30pm 25.3 25.3 16.2 57 5.6 ENE 11 19 6 10 1017.0 1016.7 0.0
23/07:00pm 26.2 25.8 16.2 54 6.1 E 13 20 7 11 1016.8 1016.5 0.0
23/06:30pm 27.1 26.1 16.7 53 6.5 ENE 17 26 9 14 1016.5 1016.2 0.0
23/06:00pm 27.8 26.4 17.0 51 6.8 ENE 20 30 11 16 1016.1 1015.8 0.0
23/05:30pm 28.6 27.1 16.8 48 7.4 ENE 20 26 11 14 1016.1 1015.8 0.0
23/05:00pm 29.6 28.8 17.1 47 7.9 ENE 17 26 9 14 1016.0 1015.7 0.0
23/04:30pm 30.2 28.9 17.3 46 8.2 E 20 28 11 15 1016.0 1015.7 0.0
23/04:00pm 30.8 29.8 17.5 45 8.5 E 19 26 10 14 1016.2 1015.9 0.0
23/03:30pm 30.2 28.6 16.6 44 8.5 E 20 30 11 16 1016.5 1016.2 0.0
23/03:00pm 30.9 29.5 16.5 42 9.0 E 19 28 10 15 1016.7 1016.4 0.0
23/02:30pm 30.7 29.5 17.0 43 8.7 E 19 28 10 15 1017.0 1016.7 0.0
23/02:00pm 31.4 30.7 17.3 43 9.0 ENE 17 24 9 13 1017.2 1016.9 0.0
23/01:30pm 31.7 31.3 15.2 36 10.2 NNE 11 20 6 11 1017.6 1017.3 0.0
23/01:00pm 30.5 29.9 14.6 38 9.7 NNE 11 17 6 9 1018.0 1017.7 0.0
23/12:30pm 30.1 30.5 15.4 41 9.1 NNE 7 15 4 8 1018.3 1018.0 0.0
23/12:00pm 28.8 28.5 16.4 47 7.7 N 13 19 7 10 1018.7 1018.4 0.0
23/11:30am 27.4 27.8 16.4 51 6.8 N 9 19 5 10 1019.0 1018.7 0.0
23/11:00am 26.2 26.4 16.7 56 5.9 NE 11 17 6 9 1019.3 1019.0 0.0
23/10:30am 25.6 26.2 16.7 58 5.5 NE 9 17 5 9 1019.5 1019.2 0.0
23/10:00am 24.2 24.7 16.5 62 4.7 NE 9 17 5 9 1019.8 1019.5 0.0
23/09:30am 23.2 23.8 16.7 67 4.0 NNE 9 15 5 8 1020.0 1019.7 0.0
23/09:00am 22.3 22.2 17.0 72 3.2 NNE 13 17 7 9 1020.0 1019.7 0.0
23/08:30am 21.2 22.0 16.4 74 2.9 N 7 9 4 5 1019.8 1019.5 0.0
23/08:00am 20.9 23.1 16.5 76 2.7 CALM 0 0 0 0 1019.6 1019.3 0.0
23/07:30am 19.0 21.3 16.8 87 1.3 CALM 0 0 0 0 1019.4 1019.1 0.0
23/07:00am 17.6 19.4 15.6 88 1.2 CALM 0 0 0 0 1019.2 1018.9 0.0
23/06:30am 17.7 19.5 15.5 87 1.3 CALM 0 0 0 0 1018.9 1018.6 0.0
23/06:00am 18.0 19.5 15.6 86 1.4 E 2 6 1 3 1018.7 1018.4 0.0
23/05:30am 18.3 19.4 15.6 84 1.6 E 4 6 2 3 1018.5 1018.2 0.0
23/05:00am 18.7 19.5 15.9 84 1.7 E 6 9 3 5 1018.5 1018.2 0.0
23/04:30am 18.8 20.8 15.9 83 1.7 CALM 0 0 0 0 1018.5 1018.2 0.0
23/04:00am 19.8 20.7 16.1 79 2.2 ENE 6 7 3 4 1018.6 1018.3 0.0
23/03:30am 20.0 20.7 16.0 78 2.4 ENE 7 7 4 4 1018.5 1018.2 0.0
23/03:00am 20.2 21.1 16.0 77 2.5 E 6 9 3 5 1018.6 1018.3 0.0
23/02:30am 20.5 21.2 16.1 76 2.6 ENE 7 11 4 6 1018.7 1018.4 0.0
23/02:00am 20.8 21.2 16.2 75 2.8 E 9 13 5 7 1018.8 1018.5 0.0
23/01:30am 20.9 21.2 16.1 74 2.9 E 9 15 5 8 1018.9 1018.6 0.0
23/01:00am 21.4 21.7 15.9 71 3.3 E 9 13 5 7 1019.1 1018.8 0.0
23/12:30am 21.8 22.1 16.1 70 3.4 E 9 17 5 9 1019.4 1019.1 0.0
23/12:00am 21.8 22.1 16.1 70 3.4 E 9 17 5 9 1019.4 1019.1 0.0
 
Date/Time
EDT
Temp
°C
App
Temp
°C
Dew
Point
°C
Rel
Hum
%
Delta-T
°C
Wind Press
QNH
hPa
Press
MSL
hPa
Rain since
9am
mm
Dir  Spd
km/h
Gust
km/h
Spd
kts
Gust
kts
22/11:30pm 21.8 22.1 16.1 70 3.4 ENE 9 15 5 8 1019.4 1019.1 0.0
22/11:00pm 22.0 22.3 16.1 69 3.6 ENE 9 15 5 8 1019.3 1019.0 0.0
22/10:30pm 22.1 22.4 16.1 69 3.6 NE 9 13 5 7 1019.4 1019.1 0.0
22/10:00pm 22.6 22.6 16.2 67 3.9 NE 11 17 6 9 1019.3 1019.0 0.0
22/09:30pm 23.2 22.8 16.3 65 4.2 NE 13 22 7 12 1019.1 1018.8 0.0
22/09:00pm 23.3 23.0 16.4 65 4.2 NE 13 24 7 13 1018.9 1018.6 0.0
22/08:30pm 23.2 22.9 16.5 66 4.1 NE 13 20 7 11 1018.6 1018.3 0.0
22/08:00pm 23.7 22.0 16.2 63 4.6 NE 20 32 11 17 1018.0 1017.7 0.0
22/07:30pm 24.2 22.5 15.7 59 5.2 ENE 19 30 10 16 1017.7 1017.4 0.0
22/07:00pm 24.8 22.9 15.7 57 5.5 NE 20 33 11 18 1017.5 1017.2 0.0
22/06:30pm 25.4 22.7 15.7 55 5.9 ENE 24 35 13 19 1017.2 1016.9 0.0
22/06:00pm 26.1 23.7 15.5 52 6.4 ENE 22 35 12 19 1017.2 1016.9 0.0

Other Formats:

Comma delimited format used in spreadsheet applications
http://www.bom.gov.au/fwo/IDN60801/IDN60801.95761.axf

JavaScript Object Notation format (JSON) in row-major order
http://www.bom.gov.au/fwo/IDN60801/IDN60801.95761.json